RH
7 6 6 6 5 5 4 4 3 3 3 3 3 3 3 4 4 5 5 6 7 7 8 8 9 9 10 10 11 11 12 12 13 13 13 13 12 11 10 9 8 7 7 7 6 6 6 7 7 7 7 7 7 7 7 8 8 8 8 8 8 8 8 8 8 8 8 8 7 7 7 7 7 7 6 6 5 5 5 5 5 5 5 5 5 5
6 6 5 5 4 4 3 3 3 3 3 3 3 4 4 5 6 6 7 8 8 9 10 10 10 11 11 11 12 12 13 13 13 13 12 11 10 9 8 7 7 7 7 7 7 7 8 8 8 8 8 8 8 8 8 8 9 9 9 9 10 10 10 10 10 9 9 9 8 8 8 8 8 8 8 8 7 7 6 6 6 6 6 6 6 6
5 5 4 4 3 3 3 2 3 3 3 4 4 5 6 6 7 8 8 9 10 10 11 11 11 12 12 12 12 13 13 13 13 12 10 9 8 8 7 7 7 8 8 9 9 10 10 10 10 9 9 9 9 9 9 9 9 9 10 10 10 10 10 10 10 10 9 9 9 9 9 9 10 10 10 10 9 9 9 9 8 8 7 7 7 6
4 4 3 3 3 2 2 3 3 3 4 5 5 6 7 7 8 8 9 10 10 11 11 12 12 12 12 12 13 13 13 12 11 10 8 8 8 8 8 9 10 11 12 13 14 14 14 13 13 12 11 10 10 9 9 9 9 9 9 9 10 10 10 10 10 9 9 9 9 10 10 10 10 11 11 10 10 10 10 10 10 9 9 8 8 7
4 3 3 2 2 3 3 3 4 4 5 6 6 7 7 8 8 9 10 10 11 11 11 12 12 12 12 12 12 12 11 10 9 8 8 8 9 10 12 14 16 18 20 20 20 19 18 17 16 15 13 12 11 10 9 9 8 8 8 8 8 8 8 8 8 8 8 8 9 9 10 10 10 10 10 10 10 10 11 11 11 10 10 9 9 8
3 3 3 3 3 3 4 4 5 5 6 6 6 7 7 8 8 9 9 10 10 10 11 11 11 11 12 12 11 10 9 8 8 8 9 11 14 17 21 24 26 27 27 26 25 23 21 19 18 16 14 13 12 10 10 9 8 8 7 7 7 7 6 6 6 6 6 6 7 7 8 8 9 9 9 10 10 10 10 10 10 11 10 10 10 9
3 3 3 4 4 4 5 5 5 6 6 6 6 6 7 7 7 8 8 9 9 10 10 10 10 10 11 10 9 8 7 8 9 12 15 19 24 29 33 35 36 35 33 31 28 26 23 21 19 18 16 15 14 12 12 11 11 10 10 10 10 10 9 8 8 7 6 6 6 6 6 6 6 7 7 8 8 9 9 9 10 10 10 10 10 10
3 3 4 4 5 5 5 5 6 6 6 6 6 6 6 6 7 7 7 8 8 8 9 9 9 9 9 8 8 8 8 11 15 19 25 31 37 41 44 44 43 41 38 35 32 29 27 25 23 22 21 20 19 19 19 19 19 20 20 20 19 19 18 16 14 12 10 9 8 7 6 6 6 6 6 6 7 7 7 8 8 9 9 10 10 10
4 4 5 5 5 5 5 5 5 5 5 5 5 5 6 6 6 6 6 7 7 7 8 8 8 8 7 7 8 10 13 18 25 31 38 44 48 50 51 50 48 45 43 39 36 34 32 30 29 28 27 27 27 27 28 29 29 30 30 29 29 27 25 23 20 17 15 13 11 10 9 8 7 7 6 6 6 6 6 6 7 7 8 9 9 10
5 5 5 5 5 5 5 5 5 5 5 5 5 5 5 5 5 5 5 6 6 7 7 7 7 7 7 9 12 17 22 30 37 44 50 53 55 55 55 53 51 49 47 44 41 39 37 35 34 33 33 33 33 34 34 34 34 34 34 34 33 31 28 25 21 18 14 12 11 10 10 10 9 8 7 7 6 6 5 6 6 6 7 7 8 9
5 5 5 5 4 4 4 4 4 4 4 5 5 5 5 5 5 5 5 5 6 6 6 6 7 8 10 15 20 27 35 43 49 54 58 59 59 59 58 56 54 52 50 48 46 44 42 40 38 37 37 37 37 37 36 36 35 35 35 35 34 32 29 25 21 16 12 10 8 8 9 9 9 9 9 8 7 6 6 6 5 5 6 6 7 8
5 5 4 4 3 3 3 3 3 4 4 5 5 5 5 5 5 5 5 5 5 5 6 7 10 14 19 26 33 40 47 53 57 60 62 63 63 62 60 58 56 55 53 52 51 49 47 44 43 41 41 40 40 39 38 37 37 37 37 37 36 35 31 26 21 16 11 8 6 5 6 7 8 8 8 8 8 7 6 6 6 5 5 5 6 7
4 4 3 3 2 2 3 3 4 4 5 5 5 5 5 5 5 5 5 5 6 7 10 13 18 25 32 39 46 51 56 59 61 63 65 65 65 64 62 60 59 58 57 56 55 53 52 50 48 46 46 45 44 43 41 40 40 40 40 40 39 38 35 30 24 18 12 8 5 4 4 4 5 6 7 7 7 7 7 6 6 5 5 5 5 6
3 3 2 2 2 2 3 3 4 4 5 5 5 5 4 4 4 5 6 7 10 14 19 25 31 39 46 52 56 59 60 61 62 64 66 67 66 65 64 62 61 61 60 60 59 58 57 55 53 52 52 52 51 49 47 46 45 44 44 44 43 42 39 34 28 22 16 11 7 5 4 3 3 4 4 5 5 6 6 6 5 5 5 5 5 5
2 2 2 2 2 3 3 4 4 4 4 4 4 4 4 5 6 8 11 16 21 28 34 40 45 51 58 61 63 63 62 61 60 61 62 64 65 65 65 63 62 62 63 63 62 61 60 59 58 58 58 57 56 55 54 52 51 50 50 49 48 46 44 40 34 27 20 15 11 9 6 5 4 3 3 3 4 4 4 5 5 5 5 5 5 5
2 2 2 2 3 3 3 4 4 4 4 4 4 5 7 10 14 19 25 31 37 44 49 52 55 58 62 65 66 64 61 58 57 57 57 59 61 63 63 62 61 62 63 64 64 64 63 62 61 61 61 60 59 59 58 57 56 55 54 53 52 52 50 45 39 32 24 19 16 13 11 10 8 6 5 4 4 3 3 4 4 4 4 4 4 4
2 2 2 3 3 3 3 3 4 4 5 6 9 12 17 23 29 36 43 49 54 57 59 59 59 59 59 61 63 63 59 56 54 53 54 56 59 61 61 60 60 60 61 63 65 65 63 63 62 62 63 62 61 60 60 60 59 57 56 56 57 56 55 50 43 34 26 21 18 17 16 14 13 11 9 7 6 5 5 5 5 5 5 5 5 5
2 2 3 3 3 3 4 5 6 8 11 15 21 27 35 42 49 56 61 63 64 63 62 61 60 59 59 60 60 60 57 54 52 52 53 56 58 60 60 59 59 59 61 63 64 63 62 62 63 64 65 64 62 62 61 60 59 58 58 59 60 60 57 51 42 32 24 20 18 17 16 16 15 14 13 12 11 10 8 8 8 8 9 10 10 9
3 3 3 4 4 5 7 10 14 19 25 33 40 47 54 60 64 67 68 68 66 64 62 61 61 62 62 62 61 60 57 54 52 52 53 55 58 60 60 59 58 59 60 61 62 61 61 62 64 65 66 65 64 63 62 61 60 60 61 62 63 61 57 48 37 28 22 20 20 19 19 20 20 21 20 19 18 16 14 14 15 16 18 19 19 19
4 4 6 7 9 12 17 24 31 39 46 52 58 62 66 68 69 69 68 67 65 64 64 65 65 65 65 63 62 60 56 53 51 51 51 55 59 61 60 58 57 57 59 61 61 61 62 64 65 66 66 65 64 64 63 62 62 62 63 64 63 59 51 40 32 28 27 28 29 31 33 33 33 33 31 30 27 26 24 24 26 28 31 32 33 33
6 8 11 15 20 26 34 43 51 58 63 65 66 67 68 67 67 67 67 66 66 66 67 68 68 68 67 64 63 60 56 53 51 51 52 56 61 63 61 58 57 57 60 62 62 62 63 64 65 66 66 66 66 66 65 63 62 62 63 62 58 51 42 36 35 37 40 43 45 47 48 48 48 47 46 44 42 40 38 38 40 42 45 46 47 47
12 17 23 30 37 45 52 59 64 67 68 68 67 66 66 65 65 66 66 66 66 68 69 71 71 70 68 67 66 63 59 56 54 54 55 59 64 66 64 60 58 59 60 62 62 61 61 62 62 63 63 63 63 63 61 60 59 58 56 52 47 42 40 43 46 50 52 54 55 57 58 59 59 59 58 57 55 53 52 52 52 53 54 55 56 56
24 30 38 46 53 59 63 66 67 67 67 66 66 65 65 65 66 66 66 67 68 70 72 73 73 73 72 71 68 65 61 58 57 57 58 61 65 66 63 59 57 58 60 61 60 59 58 57 56 55 53 53 53 52 51 49 47 46 44 42 42 44 49 54 56 58 59 59 60 62 63 64 65 65 66 65 65 64 63 62 61 61 61 61 62 61
37 45 52 57 62 65 66 66 66 65 65 65 65 65 66 66 67 68 68 69 71 72 74 74 75 75 75 73 71 67 62 59 58 59 60 63 64 64 61 57 56 58 60 60 59 56 52 49 46 43 41 40 40 40 39 40 40 40 40 43 49 55 59 61 62 62 63 63 64 66 66 66 67 68 69 69 69 69 68 68 67 66 65 65 65 64
50 55 59 62 64 66 66 66 66 65 65 65 66 66 67 69 70 72 72 73 73 74 74 74 75 75 74 72 70 67 63 61 61 62 64 65 66 65 62 59 59 60 62 60 56 51 46 42 37 34 31 31 31 33 35 36 38 41 47 53 57 60 62 63 64 65 67 68 69 69 69 69 69 69 69 69 69 69 69 69 68 68 67 65 65 64
58 61 63 65 66 67 67 67 68 68 68 68 68 69 70 72 73 73 73 73 73 73 73 73 74 74 74 71 69 67 65 64 64 65 67 68 68 68 66 64 63 63 63 59 54 48 44 40 36 32 30 30 32 35 39 43 48 52 56 57 58 59 61 63 65 66 68 68 68 68 67 67 67 67 66 67 67 67 67 67 67 67 66 65 64 63
64 65 67 68 68 69 70 70 71 71 72 72 72 72 72 71 71 71 71 71 71 72 72 72 73 74 74 73 71 69 67 66 66 67 69 70 70 69 67 66 65 65 63 60 55 51 48 44 40 36 34 37 41 45 50 53 56 57 56 55 55 57 59 62 64 64 64 63 62 62 62 62 62 62 61 62 62 62 63 64 64 64 64 63 62 61
68 69 70 71 71 71 72 73 74 74 75 75 73 72 70 69 68 68 69 70 70 71 73 73 74 74 75 75 73 71 68 68 68 68 70 71 71 70 68 67 66 65 63 61 59 56 53 49 44 42 42 47 51 55 58 59 59 57 55 54 54 55 58 60 61 61 61 59 59 58 58 56 53 50 47 47 46 46 49 52 55 57 59 59 59 58
71 72 73 73 73 73 74 75 75 75 75 74 72 70 68 68 68 68 68 69 70 72 73 75 75 75 76 76 75 74 71 70 68 68 69 70 71 71 69 68 67 66 65 64 62 60 58 54 51 49 51 55 58 60 61 62 61 59 55 53 53 55 58 60 61 63 63 64 63 62 60 56 50 43 36 30 27 26 28 32 36 39 43 45 47 49
73 74 74 74 74 75 75 75 76 75 74 72 70 69 68 68 68 68 68 70 71 73 74 75 76 76 76 76 76 76 75 72 69 68 68 69 70 71 71 70 69 67 66 67 66 65 62 59 57 55 56 59 61 64 66 66 64 60 55 55 57 60 62 64 66 68 68 69 68 67 65 63 58 50 41 31 25 20 18 19 21 23 25 27 31 34
73 74 75 75 75 76 76 76 75 74 72 71 70 70 70 69 69 69 70 71 72 73 74 75 76 76 76 76 76 76 76 74 71 69 68 69 70 70 71 70 69 68 68 68 69 68 66 64 61 60 59 60 63 66 69 68 65 61 59 60 62 65 67 68 69 70 71 71 71 70 68 67 63 57 49 38 29 22 19 18 18 19 20 21 23 25
73 74 75 75 76 76 76 75 74 73 72 72 72 72 72 71 71 71 72 73 73 73 72 73 75 76 76 76 76 76 76 75 73 70 69 69 70 71 71 70 69 69 68 69 69 69 69 68 66 64 63 61 63 66 71 68 65 63 62 64 65 67 68 69 70 71 72 72 72 71 70 68 66 62 55 43 33 25 21 20 21 21 22 23 24 25
72 73 73 74 75 75 74 73 73 73 73 74 74 74 73 72 72 73 73 74 73 72 70 71 72 74 76 76 76 76 76 76 74 72 70 70 71 71 72 70 69 69 69 69 69 69 69 70 70 69 66 63 64 67 72 69 65 63 64 65 67 68 68 69 71 72 73 73 73 72 70 69 67 65 61 52 42 33 26 24 23 23 23 24 25 26
71 71 72 73 74 74 74 74 74 74 75 75 75 75 74 73 73 74 74 74 73 72 69 69 70 72 74 75 75 76 76 76 75 73 72 72 72 72 72 71 70 70 71 70 70 69 68 69 70 71 69 66 66 68 73 71 66 64 66 66 67 67 66 67 69 70 72 73 73 72 71 69 68 67 66 64 57 48 37 29 25 23 23 25 26 27
70 70 71 72 73 74 75 75 75 76 76 76 76 75 74 74 74 74 75 75 74 72 70 69 69 70 72 72 73 74 75 76 76 75 74 74 74 74 73 72 72 72 72 71 69 67 65 65 66 67 68 66 67 68 72 70 67 65 66 67 67 66 63 64 63 63 64 68 71 72 73 71 70 69 69 70 67 61 51 39 30 25 25 26 28 29
70 71 72 73 74 75 76 76 76 76 76 76 76 76 75 75 75 75 75 75 74 73 71 70 70 71 71 70 70 72 74 76 76 76 76 76 75 75 74 74 73 73 72 70 67 64 61 59 60 61 63 63 64 66 69 69 67 66 66 69 69 67 63 61 60 59 60 63 66 69 72 72 72 72 72 72 71 68 63 48 36 29 27 28 29 30
71 72 73 74 75 76 76 76 76 76 76 76 76 76 76 76 75 76 76 76 75 74 73 73 73 72 72 70 70 70 73 76 76 77 76 76 76 76 76 75 74 72 70 67 63 59 56 56 56 57 58 60 62 64 65 66 65 65 68 71 72 70 65 64 63 63 62 61 61 63 68 71 72 72 73 73 72 71 69 55 41 31 29 30 31 31
73 74 75 75 76 76 76 76 76 76 76 76 76 76 76 76 76 76 76 76 76 76 75 75 75 74 73 71 70 70 72 75 76 77 77 77 76 76 76 75 73 70 68 63 58 54 52 53 54 55 56 60 63 64 64 64 65 67 71 73 72 69 66 67 67 67 66 65 63 61 61 65 69 72 72 73 73 72 70 55 42 32 31 31 31 30
75 76 76 76 76 76 76 76 76 76 76 76 76 76 76 76 76 76 76 76 76 76 76 76 76 75 74 72 71 71 73 75 76 77 77 76 76 75 74 73 72 69 65 59 55 51 51 52 54 57 60 62 64 64 64 64 66 70 74 75 72 69 65 67 69 70 70 70 69 67 64 58 62 69 71 72 72 71 68 49 38 33 34 32 30 27
76 76 76 76 76 76 76 76 76 76 76 76 76 76 76 76 76 77 77 77 77 76 76 76 76 76 75 73 72 72 73 75 76 77 77 76 75 74 72 72 70 68 64 59 55 54 54 57 59 61 63 63 62 62 62 65 69 72 74 72 69 68 67 68 69 71 72 72 72 71 68 58 57 61 68 69 70 68 59 41 34 34 37 33 29 25
76 76 76 76 76 76 76 76 77 77 77 77 77 76 76 76 76 77 77 77 77 77 77 77 77 77 76 74 73 73 74 76 76 77 77 76 74 72 71 71 70 68 62 58 56 57 59 62 65 66 65 63 62 62 63 66 68 68 66 64 64 66 69 70 70 71 73 73 72 71 69 59 58 62 66 69 69 65 52 36 33 36 39 34 28 23
76 76 76 76 77 77 76 76 76 77 77 77 77 77 77 76 76 76 77 77 77 77 77 77 77 77 77 76 75 74 75 76 76 77 77 76 74 72 72 72 69 66 60 57 56 56 59 63 66 67 65 64 63 63 62 61 62 62 61 61 64 69 74 73 70 69 73 73 72 71 70 55 57 65 69 70 72 68 53 39 36 39 43 38 32 25
76 76 76 76 76 76 76 76 76 76 76 76 76 76 76 77 77 77 77 77 77 77 77 77 77 77 77 77 76 76 75 76 76 77 76 76 75 74 73 71 66 61 56 53 52 51 52 58 63 66 64 63 62 60 54 55 58 62 64 67 69 72 75 76 72 68 69 71 73 70 60 54 59 68 71 71 72 70 59 39 37 42 47 47 42 34
76 76 76 76 76 76 76 76 76 76 74 74 74 74 75 76 76 77 77 77 77 77 77 77 77 77 77 77 77 76 76 76 76 76 76 76 76 74 71 66 60 54 50 47 45 43 44 51 57 60 61 61 59 55 51 55 61 66 68 70 72 73 74 75 74 71 69 71 71 67 56 51 59 69 73 71 72 69 59 40 37 42 50 54 54 50
76 77 77 77 77 77 77 77 76 75 74 73 73 73 73 74 76 77 77 77 77 77 76 77 77 77 77 77 77 77 77 77 77 77 77 77 75 71 64 57 51 47 44 41 39 38 39 44 49 52 55 57 57 55 55 60 65 68 71 72 73 74 74 74 74 73 71 72 72 69 61 58 61 67 72 72 72 68 53 39 36 42 50 58 62 63
76 76 76 76 76 76 76 76 76 75 74 73 73 73 73 74 75 76 76 77 77 77 77 77 77 77 77 77 77 77 77 77 77 77 77 77 72 65 54 48 45 42 41 39 38 36 35 37 40 43 48 52 54 56 59 63 67 70 72 73 74 74 73 74 72 70 70 73 73 70 65 60 57 56 60 63 62 56 43 35 35 42 50 59 65 69
76 76 76 76 75 75 75 76 75 75 74 73 73 73 73 74 74 75 76 77 77 77 77 77 77 77 76 76 77 77 77 77 77 77 77 77 70 59 47 43 42 41 41 42 42 40 38 36 36 38 42 46 51 55 60 64 68 70 72 74 74 74 74 73 70 68 69 73 74 71 63 59 54 48 44 44 41 38 33 32 35 42 52 59 65 69
75 75 74 74 74 73 73 73 74 73 73 73 73 73 73 74 74 75 75 76 77 77 77 77 77 77 77 76 77 77 77 77 76 76 77 76 66 53 42 39 39 40 42 44 46 46 45 43 42 42 43 47 52 58 63 66 68 70 72 74 75 75 74 75 72 70 69 73 74 72 65 60 54 48 43 42 41 38 33 31 35 43 52 59 64 68
72 71 71 70 69 68 68 69 70 71 71 71 72 72 73 73 74 74 74 75 76 77 77 77 77 77 77 77 77 77 77 76 75 74 75 73 63 49 38 36 35 37 41 45 49 51 52 51 50 49 49 52 57 62 66 68 70 71 73 74 75 75 75 75 75 74 73 73 73 70 65 59 51 43 38 38 38 37 34 32 35 42 51 59 64 68
65 65 64 64 63 62 62 63 65 66 67 68 69 70 71 72 73 73 73 74 75 76 77 77 77 77 78 77 77 77 77 76 74 73 73 73 63 48 37 35 34 36 41 46 51 54 57 57 57 56 55 57 61 65 68 70 72 74 75 75 75 75 75 75 75 76 75 72 69 65 61 56 48 39 30 27 28 30 31 31 33 39 49 57 63 66
56 55 54 54 54 54 55 56 57 59 60 62 64 65 67 68 69 71 72 73 74 75 76 77 77 77 78 77 77 77 77 76 74 72 71 73 65 51 39 36 35 38 42 47 52 56 60 61 62 62 62 63 65 67 69 72 74 75 76 76 76 76 75 75 75 76 76 71 64 58 54 53 47 39 28 21 19 22 25 26 29 36 46 54 61 65
Wind_Speed
120 120 121 121 119 118 117 116 113 109 106 105 101 98 94 90 87 85 82 80 78 77 75 74 73 72 71 70 69 69 69 69 70 71 72 73 74 75 75 75 75 75 74 74 73 73 73 72 72 71 70 70 69 68 68 68 68 68 68 68 67 67 66 66 66 66 66 66 66 66 65 66 66 67 68 67 67 66 66 65 65 65 67 69 71 73
121 121 121 120 117 115 113 112 109 105 101 99 96 93 89 86 83 81 79 77 75 74 73 72 72 71 70 69 69 68 69 69 70 71 72 73 73 73 73 73 72 72 71 70 70 70 69 69 69 69 68 68 67 67 67 66 66 66 66 66 66 66 65 65 65 65 65 65 64 64 63 63 63 63 64 64 63 62 61 61 61 62 64 66 68 69
121 120 119 117 115 111 108 106 104 101 97 94 91 88 86 83 81 79 77 75 74 73 72 72 71 70 70 69 68 68 69 69 70 71 71 71 70 70 70 69 68 68 67 67 66 66 66 66 66 66 66 66 66 65 65 65 65 65 65 65 65 65 65 65 65 65 64 64 63 62 62 61 61 61 61 61 61 60 59 59 60 61 62 64 65 67
119 117 116 114 111 108 105 102 99 96 94 91 88 86 83 81 79 78 76 75 74 73 72 71 70 70 69 68 68 68 68 69 69 68 68 67 66 66 65 65 64 63 63 62 62 62 63 63 63 63 63 63 63 63 63 63 63 63 63 63 64 64 65 65 65 64 64 63 62 62 61 61 61 61 60 60 60 59 59 59 60 61 62 63 64 65
117 114 111 109 106 104 102 98 95 93 91 89 86 84 83 81 79 77 76 75 74 73 72 71 70 69 68 68 67 67 67 66 65 64 63 63 62 61 60 60 59 58 58 58 58 58 58 58 58 59 59 59 59 59 59 59 59 60 60 61 62 62 63 63 63 63 63 63 62 61 61 61 61 60 60 60 59 59 59 59 59 60 61 62 62 63
114 110 107 104 102 100 98 96 93 91 89 88 86 84 82 80 78 77 76 74 73 72 71 70 69 68 67 66 66 65 64 62 61 59 58 58 57 56 55 54 53 53 53 53 53 53 53 53 53 53 54 54 54 54 54 55 55 55 56 57 58 59 59 60 61 61 61 61 61 61 60 60 60 60 60 60 59 59 58 58 59 59 60 60 61 62
109 107 104 101 99 97 96 94 92 90 88 87 85 83 81 79 77 76 74 73 72 71 69 68 66 65 64 63 62 61 59 57 55 54 53 52 51 50 49 49 49 49 49 49 49 49 49 48 48 48 48 48 48 48 48 48 49 49 50 51 52 53 54 55 56 57 58 58 59 59 59 59 59 59 59 59 59 58 58 58 58 58 59 59 60 60
104 103 101 98 97 96 94 92 90 88 86 85 83 81 79 77 75 73 72 70 69 68 66 65 63 61 60 59 57 55 53 52 50 49 48 47 46 46 46 46 46 46 46 45 45 45 45 45 44 44 44 43 43 43 43 43 43 43 44 44 45 47 48 50 51 52 54 54 55 56 56 57 57 57 58 58 58 58 58 58 57 57 57 58 58 59
100 99 98 96 95 93 92 90 88 86 83 81 79 78 76 74 72 69 67 66 64 63 61 60 58 56 54 53 51 50 48 46 45 44 44 43 43 44 44 44 44 44 44 43 43 43 42 42 42 41 41 40 40 39 39 38 38 39 39 39 40 41 43 44 46 48 49 50 51 52 53 54 55 55 56 56 57 57 57 57 57 57 56 57 57 57
98 96 95 94 92 90 88 86 84 82 79 76 74 72 71 69 67 65 62 59 57 56 55 54 52 51 48 47 45 44 43 41 41 41 41 42 43 43 44 44 44 43 43 42 42 41 41 40 40 39 39 38 37 37 36 36 36 36 36 37 37 38 39 40 41 43 44 46 47 48 50 51 52 53 54 54 55 55 56 56 56 56 56 56 56 56
96 94 93 91 89 86 83 80 78 75 73 70 68 66 64 63 61 59 56 53 50 48 47 47 46 45 43 41 40 39 38 38 38 39 40 42 43 44 45 45 44 44 43 42 41 41 40 40 39 38 38 37 36 35 35 34 34 34 34 34 35 36 36 37 38 39 40 41 42 44 45 47 48 49 50 51 52 53 54 54 55 55 55 55 54 54
92 90 88 86 83 80 77 74 71 68 66 63 61 60 57 55 54 52 50 47 44 42 41 40 39 39 38 37 36 36 36 36 38 39 41 42 44 45 45 45 45 44 44 43 42 41 40 40 39 38 37 37 36 35 34 33 32 32 32 32 33 33 34 35 35 36 36 37 38 39 41 42 44 45 46 48 49 50 51 52 53 54 54 53 53 53
88 86 83 80 76 73 70 67 64 61 59 56 55 53 51 48 46 44 43 40 38 37 36 35 34 33 33 34 34 35 36 37 39 40 41 43 44 45 46 46 45 45 44 43 42 41 40 40 39 38 38 37 36 35 34 33 31 30 30 30 31 32 32 33 34 34 35 35 35 36 37 38 40 41 42 43 44 46 47 49 50 51 52 52 52 52
83 80 76 73 69 66 62 60 57 55 52 50 48 46 44 41 39 38 37 35 34 33 32 31 31 30 31 32 34 36 38 40 41 41 42 43 44 45 45 45 45 44 44 43 42 41 40 40 39 38 38 37 37 36 35 33 32 31 30 30 30 31 32 32 33 33 34 34 34 34 35 36 37 38 38 39 40 42 43 45 46 48 48 49 50 50
76 73 69 66 62 59 56 53 51 48 46 44 42 40 38 36 34 33 32 31 30 30 30 30 29 30 31 34 36 39 41 42 43 42 42 42 43 44 45 45 44 44 43 43 42 41 40 39 39 38 37 37 37 36 36 35 34 32 32 31 31 31 31 32 32 33 33 33 33 33 34 34 35 35 36 36 37 38 39 41 42 43 44 45 46 47
70 66 62 59 56 52 49 47 45 43 40 38 36 35 33 32 31 30 30 29 29 29 30 30 30 31 32 35 38 41 43 43 43 42 41 41 41 42 43 43 43 42 41 41 40 40 39 39 38 38 37 36 36 36 36 36 35 34 33 32 32 32 32 32 32 32 32 32 32 32 32 32 33 33 34 34 35 35 36 37 37 38 39 40 42 43
63 59 56 53 50 47 44 42 40 38 36 34 32 31 30 30 29 29 29 29 30 30 31 32 33 33 33 34 36 39 41 42 41 40 39 38 38 39 40 41 40 39 38 38 38 38 38 38 38 37 37 36 36 36 36 36 35 34 34 33 33 33 33 32 32 31 31 30 30 30 30 30 30 31 31 32 32 33 33 34 34 35 35 36 37 39
56 53 50 47 44 42 39 37 35 34 32 31 30 29 28 28 29 29 30 31 31 32 32 32 33 32 32 32 33 35 37 38 38 36 35 34 34 35 37 38 37 37 36 35 36 36 37 37 37 37 37 37 36 36 36 36 35 35 34 34 34 33 32 31 30 29 28 27 26 26 26 26 26 27 27 28 29 30 30 31 31 32 32 33 34 35
50 47 45 43 40 37 35 33 32 31 30 29 29 28 28 28 29 30 30 31 31 31 31 30 30 29 29 29 30 32 33 34 34 33 31 30 30 31 33 34 34 33 33 33 34 35 35 36 36 36 36 36 36 36 36 36 35 35 35 35 34 32 30 28 26 24 23 22 21 20 20 20 21 21 22 23 24 25 26 27 28 29 29 30 31 32
45 42 40 38 36 34 32 31 30 30 30 29 29 29 29 29 29 29 29 29 29 28 28 28 27 27 27 28 29 30 31 31 31 29 28 27 27 28 30 31 31 30 30 31 32 33 34 35 35 35 36 36 36 36 36 36 36 35 35 34 32 29 26 23 20 18 16 16 15 16 16 16 16 17 18 18 19 20 22 23 24 25 26 27 28 29
41 38 36 35 34 32 31 30 30 30 30 30 30 30 29 28 28 27 27 27 26 26 26 26 26 26 27 27 28 29 29 30 29 28 26 25 25 26 28 29 29 28 28 29 31 32 33 33 34 34 35 35 35 36 35 35 35 35 33 31 28 24 20 17 14 13 12 12 13 13 13 14 14 15 15 16 17 18 19 20 22 23 24 25 26 27
38 35 33 32 32 31 31 30 30 30 31 31 30 29 28 27 26 26 25 25 25 25 24 24 25 26 26 27 27 28 29 29 28 27 25 23 23 24 27 28 28 27 27 28 30 31 31 32 32 33 34 34 35 35 35 34 33 32 29 25 21 17 14 12 11 12 12 13 13 13 14 14 15 15 16 16 17 18 19 20 22 23 24 25 26 27
35 33 32 31 31 31 31 31 31 31 30 30 29 28 28 27 26 26 25 25 24 23 23 23 23 24 25 26 27 28 28 28 27 26 24 22 21 23 25 26 26 25 26 27 27 28 29 30 30 31 32 32 32 32 31 30 28 25 21 17 14 12 11 11 13 14 14 15 16 16 16 17 18 18 19 20 20 21 22 23 24 25 26 27 28 29
34 33 32 32 32 32 32 32 31 31 30 29 28 28 27 27 26 26 25 25 23 22 21 21 21 22 23 24 26 27 27 27 26 24 23 21 20 21 23 24 23 23 23 25 25 26 26 27 27 28 27 27 26 25 23 21 18 16 13 11 10 10 12 13 15 16 17 18 18 19 19 20 21 22 23 24 25 26 26 27 28 29 30 30 31 32
34 34 33 33 33 33 33 32 31 31 30 29 28 28 27 26 26 25 25 24 22 21 20 19 19 20 22 23 25 26 27 26 25 24 22 21 20 21 22 23 22 22 22 23 24 24 24 24 24 23 23 21 19 17 14 12 10 9 9 9 11 12 14 15 16 18 19 20 20 21 22 23 24 25 26 27 29 30 31 32 33 34 35 35 36 36
35 35 35 34 34 33 32 32 31 30 30 30 29 28 27 26 25 24 23 22 21 20 19 19 19 20 22 24 25 27 27 27 26 24 24 22 22 22 22 23 22 22 21 22 23 23 22 22 21 20 18 15 12 10 8 7 7 8 10 11 13 15 16 16 17 18 20 21 21 22 23 25 26 27 29 31 32 34 35 36 37 38 39 39 40 40
35 35 34 34 33 32 31 30 30 30 30 30 29 29 27 25 24 22 22 21 21 20 20 20 21 21 22 24 26 28 28 28 27 26 25 24 24 23 22 22 22 21 21 21 21 21 20 19 18 16 14 11 9 8 7 8 9 11 13 14 15 16 16 16 16 17 18 19 20 21 23 24 26 28 30 32 33 35 36 38 39 40 41 41 41 41
34 34 33 32 31 30 29 29 29 29 29 29 29 28 27 25 24 23 22 22 22 22 23 23 23 23 23 24 26 28 29 30 29 28 26 26 25 23 22 21 21 21 21 21 21 20 19 17 15 13 11 9 9 9 10 11 13 14 15 15 15 14 14 13 14 15 16 17 18 19 20 21 22 24 25 27 29 31 33 34 36 37 38 39 40 40
32 31 30 30 29 28 28 28 28 28 29 29 29 28 28 26 25 25 24 23 24 24 25 25 25 25 24 24 25 27 29 30 30 29 27 26 25 23 22 21 21 20 20 20 20 19 18 16 14 12 11 10 10 11 12 14 15 15 15 14 13 12 12 13 15 16 18 19 20 20 20 20 20 21 21 22 23 24 25 27 29 31 32 34 35 36
29 28 28 27 27 27 27 27 27 27 28 28 28 28 28 27 27 27 26 26 26 26 26 26 25 25 25 25 25 26 27 29 30 29 28 26 24 23 22 20 20 20 19 19 19 19 18 16 14 12 11 11 11 12 13 15 15 15 14 12 11 12 14 16 17 18 20 21 21 22 23 23 23 22 22 21 21 21 22 23 24 26 27 28 30 31
26 26 26 26 26 26 26 26 26 26 27 27 28 28 29 28 28 28 27 27 27 27 27 26 26 26 26 26 26 26 27 28 29 29 28 26 25 23 21 20 19 19 19 18 18 18 17 17 15 13 11 11 11 12 14 14 14 13 11 10 11 13 15 16 18 19 20 21 22 23 23 24 25 24 24 23 22 22 22 23 24 24 25 26 26 27
24 24 24 25 25 25 25 25 25 25 26 26 27 28 29 29 28 28 28 28 28 28 27 27 26 25 26 26 27 27 27 28 29 29 28 26 25 23 22 20 19 18 19 18 18 17 16 16 16 15 13 12 12 13 13 14 13 11 9 9 11 13 15 16 17 18 20 21 21 22 23 24 25 25 25 24 23 22 22 23 23 24 24 24 25 25
23 23 24 24 24 24 24 24 24 24 25 26 27 28 28 28 28 28 28 28 28 28 28 27 26 26 26 26 27 28 28 29 29 29 28 27 25 24 22 21 19 18 18 18 18 16 15 14 14 14 14 13 13 13 13 12 10 9 8 10 12 14 14 15 16 17 18 19 20 20 21 22 24 25 25 25 24 24 24 24 24 24 23 23 23 23
23 23 23 23 23 23 23 23 23 24 25 26 26 27 27 27 27 28 28 28 28 28 28 28 27 27 27 27 27 28 29 30 29 29 28 27 25 23 22 21 19 19 19 19 18 17 15 13 12 12 12 12 13 13 12 10 8 7 8 11 13 15 15 15 15 16 16 17 18 19 20 21 23 25 26 26 26 26 25 25 24 24 24 23 23 22
22 22 22 22 22 22 22 23 23 24 24 25 25 26 26 26 27 27 27 28 28 28 28 28 28 29 29 29 29 29 30 30 30 29 27 26 24 23 22 20 20 19 19 20 20 19 17 15 12 11 10 10 11 11 10 8 6 7 10 13 14 15 15 15 14 14 14 14 15 17 19 20 22 24 25 26 27 27 26 26 25 24 24 23 23 22
21 21 21 22 22 22 22 22 23 23 23 24 24 25 25 26 26 26 26 27 27 27 28 28 29 30 31 31 31 31 31 31 30 28 26 25 23 22 21 20 20 20 21 21 21 20 18 16 13 11 9 9 9 10 8 6 6 8 11 14 15 15 15 14 14 13 13 13 14 15 17 18 20 22 24 25 26 26 26 25 25 24 24 23 23 22
21 21 21 21 22 22 22 22 22 23 23 23 23 24 24 25 25 25 25 25 26 26 27 28 30 31 31 32 32 33 32 32 30 28 25 23 22 21 20 20 20 21 22 21 21 20 18 16 13 11 9 9 9 8 7 6 7 10 13 14 14 15 14 14 14 13 14 14 14 15 15 16 17 19 21 23 24 25 24 24 23 22 22 22 21 21
21 21 21 21 22 22 22 22 22 22 22 22 23 23 23 23 24 24 24 24 25 25 27 28 29 30 31 32 33 33 33 32 30 27 25 22 21 20 19 20 21 22 23 22 21 19 17 15 13 11 10 9 8 7 6 7 8 11 12 12 13 14 14 14 15 15 16 16 17 17 16 14 14 15 17 19 21 22 22 21 21 20 20 20 19 19
21 21 21 21 22 22 22 22 23 23 23 23 22 22 22 22 23 23 23 23 24 25 26 27 29 30 31 32 33 34 34 33 30 27 24 22 21 21 20 20 22 23 24 23 21 19 17 15 13 12 10 9 7 6 6 7 9 10 10 11 12 13 14 15 16 17 17 18 18 19 19 16 12 10 11 14 16 18 19 18 18 18 17 17 17 16
22 21 21 22 22 22 23 23 23 23 23 23 22 22 22 22 21 22 22 22 23 24 25 26 28 30 31 33 34 34 34 33 30 27 24 23 22 22 22 22 23 23 23 22 20 19 17 15 14 12 10 7 6 6 6 7 8 9 9 10 11 14 15 17 18 19 19 19 18 19 19 17 13 10 10 12 14 16 16 15 15 15 15 15 14 14
22 22 22 22 22 23 23 24 24 24 24 23 23 22 22 21 21 20 21 21 22 23 24 25 27 29 31 33 34 35 34 32 29 26 24 23 23 23 23 24 24 24 23 21 20 18 16 15 14 12 9 6 5 5 5 7 9 9 10 11 13 15 17 18 19 20 20 19 19 19 19 17 13 10 11 13 15 16 15 14 13 13 13 13 12 11
22 22 22 22 22 22 23 24 24 25 24 24 23 23 22 21 21 20 20 20 21 21 23 24 26 28 30 31 33 34 33 31 29 26 24 23 23 24 24 24 24 24 23 21 20 18 16 15 14 11 8 5 5 5 5 8 10 12 12 13 15 16 17 18 19 20 19 19 18 18 17 14 11 9 11 13 15 15 14 12 11 11 11 12 12 12
22 22 22 22 22 22 22 23 24 24 24 24 24 23 23 22 21 20 20 20 20 21 22 23 25 27 28 30 31 32 32 30 28 25 24 24 24 24 24 24 24 23 22 21 20 18 16 15 13 10 6 4 4 4 7 10 12 13 13 14 15 15 15 16 18 20 20 19 17 16 14 11 8 8 11 12 13 13 12 9 9 9 10 11 13 14
23 22 22 22 22 22 22 23 23 24 24 24 24 24 23 23 22 21 20 20 20 20 21 23 24 26 27 29 30 30 30 29 27 25 24 24 24 24 24 23 22 22 21 20 20 19 17 15 13 9 6 4 4 5 9 12 13 13 13 14 16 17 17 17 18 20 21 20 18 16 13 9 6 6 9 10 10 9 9 7 7 7 9 10 12 14
23 23 23 23 22 22 22 22 23 23 23 24 24 24 24 23 23 22 21 21 21 21 21 22 24 25 26 28 29 29 28 27 25 24 24 24 24 24 23 22 21 20 20 20 20 19 18 16 13 10 7 5 5 7 10 12 13 13 14 16 18 19 19 18 19 21 21 20 19 17 14 9 7 6 6 6 5 5 6 6 6 7 8 9 11 13
24 23 23 23 23 23 23 23 23 23 23 23 23 23 23 23 23 23 22 22 21 21 22 22 23 24 25 26 27 27 26 25 24 23 23 23 24 23 22 20 20 20 20 20 20 20 18 17 14 12 10 9 9 10 11 12 13 14 15 17 18 19 18 18 19 20 20 19 19 18 15 12 9 6 5 4 3 3 4 5 7 8 8 9 10 12
24 24 23 23 23 23 23 23 23 23 23 23 23 23 23 23 23 23 22 22 22 22 22 23 23 24 25 25 26 26 25 24 23 23 22 22 22 22 20 19 19 20 20 20 20 19 19 18 17 16 14 13 13 13 13 13 13 14 15 16 17 17 17 17 19 20 19 18 18 18 16 14 11 8 6 5 3 3 4 7 9 9 10 9 10 11
24 24 24 23 23 23 23 23 23 23 23 23 23 23 23 23 23 22 22 22 23 23 23 23 23 23 24 25 25 25 24 23 23 22 22 22 21 20 18 18 18 19 20 20 19 19 19 19 19 19 18 18 16 15 14 13 13 13 14 15 16 16 15 16 18 20 19 18 17 17 17 16 14 11 9 8 6 6 7 9 10 11 11 10 11 12
25 24 24 24 23 23 23 23 23 23 23 23 23 23 23 23 23 22 22 22 23 23 23 23 23 23 23 24 24 24 24 23 22 22 22 21 20 18 17 16 17 18 19 19 18 18 18 18 18 19 19 19 17 16 14 13 13 13 14 14 15 15 14 15 17 19 19 18 16 16 17 16 15 13 12 10 9 8 8 10 12 12 12 11 11 11
25 25 25 24 24 24 23 23 23 23 23 23 23 23 23 22 22 22 22 22 22 23 23 24 23 23 23 23 23 23 23 22 22 22 22 21 20 18 16 15 16 17 18 18 18 17 17 17 17 17 18 18 16 15 13 13 13 13 13 14 14 15 15 14 15 18 19 18 17 17 17 17 16 15 14 12 11 10 10 11 12 13 13 13 12 12
26 26 25 25 25 24 24 24 24 23 23 23 23 23 22 22 22 22 22 22 22 22 23 23 23 23 22 22 22 22 22 22 21 21 21 21 20 18 16 15 15 15 16 17 16 16 16 15 15 15 15 16 15 14 13 13 13 13 13 14 15 15 15 14 15 17 19 19 19 18 19 19 18 17 15 14 13 12 11 11 13 14 15 14 14 13
Wind_Direction
305 305 304 304 303 303 302 302 301 301 300 300 299 299 298 298 297 296 295 295 294 293 293 293 292 292 292 292 292 292 292 292 293 293 293 292 292 291 290 290 289 288 288 287 287 286 286 285 285 284 283 283 282 281 280 279 278 278 277 277 276 275 275 273 272 271 270 269 268 267 267 266 266 266 266 265 264 263 262 260 259 257 255 254 252 252
305 305 304 304 303 303 302 302 301 301 300 300 299 298 298 297 296 295 295 294 293 293 292 292 292 292 292 292 292 293 293 293 293 293 293 292 292 291 290 289 289 289 288 288 287 287 286 286 285 284 284 283 282 281 280 279 278 278 277 277 276 276 275 274 272 271 270 270 269 268 268 267 266 266 266 266 265 264 262 260 258 256 254 252 251 250
305 305 304 304 303 303 302 302 301 300 300 299 299 298 297 296 295 294 294 293 293 292 292 292 292 292 292 292 293 293 294 294 294 293 293 292 291 290 290 289 289 289 289 288 288 287 286 286 285 284 283 282 281 281 280 279 278 277 277 276 275 275 274 273 272 272 271 270 270 270 269 268 267 266 265 265 264 263 261 259 257 255 253 251 250 249
305 305 304 304 303 303 302 301 301 300 299 299 298 297 296 295 295 294 293 293 292 292 291 291 291 292 292 293 293 294 294 294 293 293 292 291 290 290 290 290 290 290 289 289 288 287 286 285 285 284 283 282 281 280 279 278 277 276 276 275 274 273 273 273 272 272 271 271 270 269 268 268 266 265 264 263 262 261 259 258 256 254 253 251 250 249
305 305 304 304 303 303 302 301 301 300 299 298 297 296 296 295 294 293 293 292 291 291 291 291 291 292 292 293 294 294 294 293 293 292 291 290 290 290 290 290 290 290 290 289 288 288 287 286 285 284 282 281 280 279 278 278 277 276 275 274 274 273 273 273 272 272 271 271 270 268 267 266 265 265 263 262 261 259 258 256 255 254 253 252 250 249
305 305 305 304 303 303 302 301 300 300 299 298 297 296 295 294 293 293 292 291 291 290 290 291 291 292 293 293 294 294 293 293 292 291 291 290 290 291 291 291 292 291 291 291 290 289 288 287 285 284 283 282 281 280 279 278 277 277 276 275 275 274 274 273 273 272 271 271 269 268 267 266 265 264 263 262 261 259 257 256 255 253 253 252 251 250
306 305 305 304 303 302 302 301 300 299 298 297 296 296 295 294 293 292 291 291 290 290 291 291 292 292 293 294 294 294 293 292 292 291 290 290 291 292 292 293 293 293 293 293 292 291 290 289 288 286 285 284 283 282 281 280 280 279 278 278 277 277 276 275 275 274 273 271 270 269 268 266 265 264 263 262 261 259 258 256 255 253 252 251 250 249
306 305 305 304 303 303 302 301 300 299 298 297 296 295 294 293 292 291 291 290 290 291 291 292 292 293 293 294 294 293 292 292 291 290 290 290 291 292 293 294 294 295 296 295 295 294 293 292 291 290 289 288 287 286 285 284 284 283 282 281 281 280 279 278 277 276 274 273 271 270 268 267 265 264 263 262 260 259 258 257 255 254 252 251 250 249
306 305 304 304 303 303 302 301 300 300 299 298 296 295 294 293 292 291 290 290 291 292 292 293 293 293 294 294 293 293 291 290 290 289 289 290 291 292 293 294 296 297 297 298 298 297 297 296 295 294 293 292 291 290 289 288 287 286 285 284 283 281 280 279 278 276 275 273 272 270 268 267 265 264 263 261 260 259 258 257 255 254 252 251 250 248
306 305 305 304 304 303 303 302 301 300 299 298 297 296 295 294 293 292 292 292 292 293 294 294 294 294 294 293 292 291 290 289 288 288 289 290 291 292 294 295 296 297 298 299 299 300 299 298 297 296 295 294 293 292 291 289 288 286 285 284 283 282 280 279 278 276 275 273 272 270 268 267 265 264 263 261 260 259 258 257 256 255 253 252 250 249
306 306 306 305 305 304 304 303 302 301 300 299 297 296 296 295 295 295 295 295 295 295 295 295 295 294 294 292 290 288 287 286 286 287 288 290 291 293 294 295 296 297 298 299 300 301 300 300 299 298 297 296 294 293 291 290 289 288 287 286 285 285 283 282 280 278 276 274 272 270 268 267 265 264 263 262 260 259 258 257 256 255 254 252 251 249
307 307 307 307 306 306 305 304 303 302 301 300 299 298 297 297 298 298 298 298 298 297 296 295 294 294 293 291 289 286 285 284 285 286 287 289 291 292 293 295 296 297 298 299 300 301 301 301 300 300 299 298 297 295 294 293 293 292 292 292 291 291 290 288 286 283 280 277 274 272 269 267 266 264 263 262 261 260 259 257 256 255 254 253 251 250
309 309 309 308 308 307 307 306 305 304 303 302 301 301 301 301 301 301 301 302 301 300 298 296 294 293 292 290 288 286 284 283 284 285 286 288 289 290 292 293 294 295 297 298 299 300 301 301 301 301 301 301 300 300 299 299 298 298 298 299 299 298 297 295 292 289 285 281 277 274 271 269 267 265 264 263 261 260 259 258 257 256 255 253 252 251
311 311 311 311 310 310 309 308 307 306 306 306 305 305 306 306 306 305 305 304 303 301 299 297 295 293 291 290 288 286 284 284 284 284 285 287 288 289 290 291 292 294 295 296 297 299 300 300 300 301 302 302 302 302 302 302 302 302 303 304 304 304 303 300 297 293 289 284 280 277 273 271 269 267 265 264 262 261 260 259 258 257 256 255 253 251
313 313 313 313 312 312 311 311 310 310 310 310 311 311 311 311 310 309 308 306 305 302 299 297 295 293 292 291 289 287 285 285 285 285 286 286 287 287 288 289 291 292 293 294 295 296 297 297 298 299 300 300 300 301 301 301 302 302 304 305 307 308 307 304 301 296 292 287 283 279 276 273 270 268 266 264 263 261 260 260 259 258 257 256 254 252
315 316 315 315 315 315 315 315 315 315 315 316 316 316 316 316 314 313 310 308 306 303 300 298 295 293 292 291 290 288 287 286 287 287 288 288 288 288 288 289 290 291 291 292 293 294 294 294 295 296 297 297 297 298 298 298 299 300 302 305 307 309 308 306 302 298 293 288 284 280 278 275 272 270 268 266 264 262 261 260 259 258 257 255 254 252
317 318 317 317 318 318 319 319 319 320 320 321 321 321 320 319 317 315 312 310 307 305 302 300 298 297 294 292 291 290 289 289 290 290 291 291 290 290 289 289 290 291 292 291 291 291 291 291 293 294 294 295 295 295 295 296 297 299 301 304 307 308 308 306 302 298 293 289 285 282 279 277 275 273 271 269 266 264 262 260 259 257 255 254 252 251
319 320 320 320 321 323 324 324 324 324 324 325 325 324 322 320 318 316 313 311 309 307 306 305 304 302 300 298 295 293 292 292 294 295 295 295 295 293 291 291 292 292 292 291 290 290 289 290 291 292 293 293 293 293 293 294 296 298 300 303 306 307 307 305 301 297 293 290 287 285 283 281 280 277 275 272 270 267 264 262 259 257 254 252 250 248
321 322 323 323 325 327 329 329 329 328 328 327 326 325 323 321 319 316 315 313 313 312 312 312 311 309 307 305 302 299 298 298 300 301 302 302 301 298 295 294 294 295 294 292 291 290 290 290 291 292 292 292 292 292 293 294 295 297 299 302 304 305 304 302 299 296 293 292 292 292 291 290 287 285 281 277 273 269 266 262 259 257 254 251 249 247
324 325 326 327 328 330 333 332 331 330 328 327 326 325 323 322 321 319 319 318 319 320 320 321 319 317 314 312 309 306 305 305 307 310 311 311 307 303 299 298 297 297 297 295 293 292 292 292 292 292 291 291 291 291 292 293 294 295 297 299 301 301 300 298 296 295 296 298 300 302 302 300 297 294 289 284 278 272 267 263 259 257 255 253 250 248
327 329 330 330 331 333 334 334 332 330 328 327 326 326 326 326 326 326 326 326 327 328 328 328 325 322 319 316 314 312 312 313 315 318 319 318 313 308 303 301 302 302 300 298 296 295 295 294 293 292 291 290 290 290 290 290 290 292 294 296 297 296 295 294 293 295 299 303 306 307 306 304 300 296 291 285 279 273 267 262 258 256 254 253 252 250
329 331 333 333 333 333 333 333 331 329 328 328 328 329 331 332 333 334 334 334 334 334 333 331 328 324 321 320 318 317 317 318 321 323 324 323 317 310 306 305 305 305 304 301 299 298 297 297 295 294 292 291 290 289 289 289 290 291 291 292 291 290 289 290 294 297 300 302 303 302 300 298 295 290 286 281 276 270 265 260 257 254 253 252 252 251
330 333 334 334 334 333 332 332 331 330 331 332 333 336 337 339 339 339 339 338 338 337 336 333 329 326 323 322 320 320 320 322 325 328 328 326 320 312 308 308 309 309 307 304 302 301 301 300 299 298 296 295 294 293 292 292 292 291 289 287 286 286 290 296 300 302 304 303 302 301 298 295 292 288 285 281 277 273 268 264 261 258 256 254 253 252
332 333 334 334 334 333 332 332 332 333 335 337 339 341 343 343 343 342 341 340 340 339 338 335 332 328 326 324 323 323 324 327 330 332 332 330 324 317 314 314 314 314 311 309 307 307 307 307 306 305 303 301 299 297 297 295 293 290 287 285 288 294 301 306 308 308 308 306 304 302 299 296 292 289 286 283 280 277 275 272 269 266 263 260 258 255
332 333 334 334 334 333 333 334 335 337 339 341 343 344 345 345 344 342 341 341 341 341 341 339 337 334 331 328 327 326 328 331 334 336 336 334 329 323 321 322 322 321 318 315 315 317 318 317 315 313 310 308 307 305 304 301 297 293 291 295 301 306 309 311 311 310 308 306 303 301 298 295 292 290 287 285 283 280 278 276 273 271 268 266 263 260
332 332 333 333 334 334 336 337 339 340 342 343 344 344 345 345 344 343 342 343 345 346 347 346 344 341 337 333 330 329 330 332 335 336 336 335 332 328 326 327 327 327 325 323 324 326 328 327 324 322 320 320 321 321 320 316 310 307 307 309 311 312 312 311 310 309 307 305 303 301 298 296 293 291 289 286 284 282 279 277 275 273 270 268 266 263
330 331 332 332 334 336 338 339 341 342 342 342 342 342 343 344 344 345 347 349 351 352 353 351 349 346 342 337 333 331 330 332 333 334 334 334 332 330 329 329 330 330 330 329 331 333 335 334 332 331 331 334 338 339 334 327 322 320 318 317 316 315 314 313 314 314 314 313 312 309 305 301 297 293 290 287 284 282 280 278 276 273 272 270 268 266
329 330 331 333 335 338 340 341 342 342 341 340 340 340 342 343 346 349 352 354 355 355 355 353 351 349 345 341 337 333 332 332 333 334 333 332 331 330 329 330 331 331 332 333 334 337 339 340 339 339 340 342 341 338 334 331 329 328 326 323 321 321 324 330 335 338 339 339 336 331 325 318 312 305 300 295 291 287 283 280 277 275 273 271 270 268
328 330 332 335 338 340 341 342 342 340 339 338 338 339 342 344 347 350 353 355 355 355 355 353 351 349 347 344 340 337 334 333 334 334 334 333 331 330 329 330 330 332 333 334 335 336 339 341 342 341 341 340 338 336 335 336 335 334 332 331 333 342 354 2 6 5 4 2 359 355 351 346 339 331 324 315 307 300 294 288 284 280 277 274 272 270
329 332 335 337 340 341 341 341 340 338 336 336 337 340 343 346 348 350 351 352 353 353 353 352 351 350 348 347 344 341 338 336 336 336 336 334 332 331 329 330 330 331 332 333 333 333 335 337 339 338 337 336 336 337 338 340 341 340 340 345 358 11 17 18 15 11 7 4 2 0 358 355 352 346 340 332 325 317 309 302 296 290 286 281 278 274
332 335 338 339 340 340 339 338 336 335 335 336 338 341 343 346 347 348 349 349 350 350 351 352 352 351 350 349 347 345 342 340 339 339 338 336 334 331 330 330 330 330 330 331 330 329 329 331 333 332 331 332 334 336 339 344 346 347 351 4 16 22 21 17 12 7 3 360 358 357 356 355 353 350 345 339 332 325 318 312 306 300 295 290 285 279
336 338 340 340 340 339 337 335 334 334 335 337 340 342 343 345 346 346 346 346 347 348 349 351 353 354 353 352 350 348 346 343 342 341 340 338 335 332 331 331 331 330 329 329 328 326 325 325 327 328 328 329 332 336 341 347 352 356 5 14 18 18 16 14 10 6 2 359 357 355 354 354 355 353 350 345 339 332 327 321 315 309 303 297 291 284
339 341 341 341 339 337 335 333 334 335 338 340 342 342 343 343 344 344 344 345 345 346 348 350 353 355 356 355 353 350 348 345 344 342 341 339 336 334 332 331 331 331 330 329 327 324 321 320 321 323 325 327 331 337 343 351 358 4 10 12 11 10 11 11 9 6 4 1 359 356 354 354 355 356 355 353 348 342 337 331 325 319 313 307 300 293
341 342 342 341 339 336 335 335 336 338 340 342 342 343 342 342 343 343 344 344 345 346 348 350 353 355 356 356 354 352 349 346 345 343 341 340 337 335 332 331 331 331 330 329 326 322 318 315 314 314 315 322 330 338 345 354 1 6 7 8 8 8 7 6 5 4 3 3 2 360 357 354 354 355 356 356 353 349 344 338 333 327 322 317 311 303
342 343 343 341 340 338 338 338 340 341 342 343 343 342 342 342 343 343 344 345 346 347 349 351 353 354 355 355 354 352 350 347 346 344 342 340 338 336 333 331 331 332 332 331 329 325 322 319 314 308 305 314 329 341 349 359 5 6 6 8 9 8 5 1 358 356 356 359 2 2 360 355 352 351 352 353 353 351 347 342 338 333 329 324 319 312
343 343 343 343 342 342 342 342 343 343 344 343 343 343 343 343 343 343 344 345 347 349 350 352 353 353 353 353 352 351 349 348 347 346 343 341 339 337 335 333 333 335 336 336 334 332 330 329 325 317 311 320 336 348 357 10 15 12 11 11 11 9 5 359 354 351 350 352 356 0 1 357 352 348 347 348 349 349 347 344 341 337 333 328 323 317
343 344 344 345 345 345 345 345 345 345 344 344 344 344 343 343 343 344 345 347 349 350 352 352 352 352 352 351 350 349 349 348 348 347 346 343 341 339 337 336 337 339 341 341 341 340 341 341 339 334 333 340 352 2 12 25 25 20 15 12 10 9 7 4 1 358 355 355 356 358 359 357 352 348 345 345 346 347 347 345 343 339 336 331 327 322
343 344 345 346 347 347 347 346 346 345 345 345 345 345 344 344 344 344 346 348 351 352 353 352 351 350 349 349 348 348 348 349 349 349 348 346 344 343 342 342 342 343 345 347 348 349 350 351 352 352 354 1 11 24 36 38 31 23 16 10 8 10 12 11 8 4 1 360 359 359 358 357 353 349 346 344 345 346 347 347 346 344 341 337 333 328
342 343 346 347 348 348 348 347 347 347 347 346 346 345 345 345 345 346 347 350 352 353 353 352 350 349 348 347 347 348 349 350 351 352 351 349 348 348 348 348 347 348 349 351 353 355 356 359 2 5 9 17 32 50 55 45 33 23 15 8 8 13 17 14 8 2 358 355 354 355 355 354 353 353 353 350 349 348 349 350 351 350 348 345 342 338
341 343 345 347 348 348 348 347 347 347 347 347 346 346 345 345 346 347 349 351 353 353 353 351 349 348 347 347 348 348 350 352 353 354 353 352 352 353 353 352 352 352 352 354 356 357 359 2 7 12 19 34 56 70 64 46 34 26 18 13 15 18 20 16 9 2 356 351 348 348 349 350 353 0 6 4 359 357 356 358 360 0 359 357 354 350
340 342 344 346 347 347 347 348 347 347 347 346 346 345 345 346 347 348 350 351 352 353 352 350 349 347 347 348 349 350 351 353 355 355 355 356 356 356 356 356 355 356 356 357 357 359 1 6 12 19 30 55 81 85 67 47 36 30 25 24 25 26 23 18 12 6 0 354 348 344 344 347 354 5 8 4 1 1 3 7 10 13 15 17 16 15
338 340 342 344 346 347 347 347 347 347 346 346 345 345 345 346 347 349 351 352 352 352 352 350 349 348 349 349 350 351 352 354 356 357 357 358 358 359 359 358 359 360 1 0 0 2 7 14 19 26 40 72 99 94 62 43 35 31 28 28 27 24 19 14 11 9 6 360 351 344 340 344 353 3 4 357 354 357 4 12 20 26 31 37 42 46
338 339 341 343 345 346 346 347 346 346 345 345 344 344 344 345 347 349 350 352 352 352 352 351 350 350 351 351 352 352 353 356 358 359 358 358 359 360 0 1 2 5 7 7 8 12 19 24 27 31 45 81 108 88 48 36 31 30 29 27 22 16 11 8 7 7 8 5 358 350 345 347 358 10 10 2 355 354 4 20 34 42 48 55 61 66
337 338 340 342 343 344 345 345 345 345 344 344 344 344 344 345 346 348 349 351 352 352 352 351 351 351 352 354 354 354 356 358 360 0 359 359 359 1 2 5 8 12 16 17 19 24 30 33 34 37 50 79 91 62 40 33 30 28 25 22 18 14 11 9 6 5 6 8 7 4 2 5 15 25 26 20 5 357 9 31 52 61 65 70 75 79
336 337 338 339 340 341 342 342 342 343 343 343 343 344 344 344 345 346 347 349 351 352 352 352 352 353 354 356 356 357 358 360 1 1 0 359 359 2 6 10 16 22 26 29 31 35 38 41 44 48 57 69 67 53 43 37 33 28 24 22 20 19 17 14 9 5 6 9 12 14 18 23 28 31 36 33 15 1 19 52 74 84 85 86 89 93
335 336 336 337 337 338 339 339 339 340 340 341 342 343 344 344 344 345 346 347 349 351 352 352 352 353 356 357 358 359 0 2 3 3 1 359 360 4 10 18 26 32 36 38 40 42 45 48 53 59 65 68 67 62 57 49 40 33 30 29 28 26 23 18 11 7 9 12 15 20 26 31 33 31 32 30 18 22 53 82 99 105 103 102 103 106
333 333 334 334 334 335 336 336 336 336 337 338 340 342 343 344 344 344 345 346 348 350 351 352 352 354 357 358 359 0 1 3 4 4 2 1 2 6 15 26 36 41 44 45 46 48 51 55 60 66 71 74 74 72 68 60 50 42 39 38 37 35 31 22 14 11 14 16 18 22 30 35 39 41 40 39 38 56 87 109 118 120 118 116 115 115
331 330 331 331 331 332 332 333 333 333 334 336 337 340 342 343 343 344 344 345 347 348 350 351 352 354 357 359 360 0 1 4 5 5 4 3 5 10 19 31 41 46 49 50 51 53 55 60 65 70 75 78 79 77 72 64 55 48 46 45 44 42 37 26 17 16 19 20 21 26 33 39 44 47 51 54 62 81 106 122 128 130 127 125 120 118
328 328 328 328 328 329 329 330 330 331 332 333 335 337 339 341 342 343 344 344 346 347 348 349 351 354 358 360 0 360 0 3 5 6 6 5 8 13 23 35 44 49 51 53 54 56 59 63 67 72 76 79 80 77 72 63 55 49 47 47 47 45 40 30 22 20 22 24 27 32 38 42 46 49 54 59 67 83 107 126 134 136 133 128 122 118
326 326 326 326 326 326 327 327 327 328 329 330 332 334 336 339 340 342 343 344 345 345 346 348 350 354 357 360 360 359 359 2 4 6 6 7 9 15 24 36 46 53 56 57 58 60 63 66 70 72 75 77 77 75 69 61 53 49 47 46 46 45 41 35 27 24 25 29 35 41 47 49 50 53 56 61 69 82 102 124 136 140 138 134 128 122
325 325 325 324 324 324 325 325 325 326 326 327 329 331 333 336 338 340 342 343 344 344 345 346 349 352 356 359 359 358 358 1 4 6 6 7 9 14 23 33 45 54 60 62 63 65 68 70 72 74 75 75 75 72 65 58 53 50 48 47 46 45 42 37 30 27 29 33 40 48 53 56 57 58 60 64 70 80 95 116 133 141 142 140 135 131